Flag for Germany Weather past 2 weeks in Dinslaken, North Rhine-Westphalia, Germany

Now
64 °F

Overcast.


Feels Like: 64 °F
Forecast: 42 / 68 °F
Wind: 2 mph from Northwest

Location: Essen

Current Time: May 23, 2015 at 12:52:54 PM

Latest Report: May 23, 2015 at 12:00 PM


Visibility: 19 mi

Pressure: 30.16 "Hg

Humidity: 45%

Dew point: 42 °F

Location of DinslakenLocation

Historic Weather in Dinslaken — Graph

°F

Dinslaken temperature yesterday

Maximum temperature yesterday: 67 °F (at 4:00 PM)
Minimum temperature yesterday: 46 °F (at 6:00 AM)
Average temperature yesterday: 58 °F

Past Weeks' High & Low Weather Summary

 TemperatureHumidityPressure
High76 °F (May 11, 7:00 PM)100% (May 16, 4:00 PM)30.35 "Hg (May 16, 4:00 PM)
Low42 °F (May 16, 6:00 AM)37% (May 8, 5:00 PM)29.64 "Hg (May 18, 9:00 PM)
Average56 °F67%30.07 "Hg
* Reported May 8 12:00 Noon — May 23 12:00 Noon, Dinslaken, Weather by CustomWeather, © 2015

Note: Actual official high and low records may vary slightly from our data, if they occured in-between our weather recording intervals... More about our weather records

Advertising

Dinslaken weather history for previous 24 hours

 ConditionsComfort  
Time TempWeatherWind HumidityBarometerVisibility
12:00 PM
Sat, May 23
64 °FOvercast.2 mph45%30.16 "Hg19 mi
11:00 AM62 °FOvercast.2 mph57%30.17 "Hg12 mi
10:00 AM58 °FOvercast.2 mph75%30.19 "Hg7 mi
9:00 AM56 °FOvercast.2 mph76%30.18 "Hg9 mi
8:00 AM55 °FOvercast.1 mph85%30.17 "Hg7 mi
7:00 AM55 °FOvercast.1 mph80%30.17 "Hg7 mi
5:00 AM57 °FOvercast.1 mph69%30.17 "Hg13 mi
4:00 AM55 °FOvercast.1 mph81%30.18 "Hg9 mi
3:00 AM57 °FOvercast.2 mph72%30.19 "Hg11 mi
2:00 AM57 °FOvercast.2 mph76%30.21 "Hg9 mi
1:00 AM58 °FOvercast.2 mph72%30.21 "Hg11 mi
12:00 AM58 °FClear.3 mph66%30.21 "Hg12 mi
11:00 PM
Fri, May 22
60 °FPassing clouds.2 mph61%30.21 "Hg16 mi
10:00 PM61 °FClear.2 mph55%30.20 "Hg18 mi
9:00 PM63 °FOvercast.1 mph52%30.19 "Hg19 mi
8:00 PM66 °FOvercast.1 mph44%30.19 "Hg18 mi
7:00 PM65 °FScattered clouds.2 mph47%30.20 "Hg22 mi
6:00 PM66 °FSunny.3 mph43%30.21 "Hg18 mi
5:00 PM66 °FSunny.2 mph42%30.22 "Hg19 mi
4:00 PM67 °FPartly sunny.1 mph47%30.23 "Hg22 mi
3:00 PM65 °FScattered clouds.2 mph45%30.25 "Hg22 mi
2:00 PM64 °FPassing clouds.3 mph45%30.27 "Hg17 mi
1:00 PM62 °FOvercast.2 mph51%30.29 "Hg19 mi
12:00 PM62 °FOvercast.2 mph51%30.31 "Hg19 mi
Weather by CustomWeather, © 2015

See weather overviewHow to use our weather pages